SCP
0 0 0 0 0 0 0 0 0 0 0 0 0 0 0 0 0 0 0 0 0 0 0 0 0 0 0 0 0 0 0 0 0 0 0 0 0 0
0 0 0 0 0 0 0 0 0 0 0 0 0 0 0 0 0 0 0 0 0 0 0 0 0 0 0 0 0 0 0 0 0 0 0 0 0 0
0 0 0 0 0 0 0 0 0 0 0 0 0 0 0 0 0 0 0 0 0 0 0 0 0 0 0 0 0 0 0 0 0 0 0 0 0 0
0 0 0 0 0 0 0 0 0 0 0 0 0 0 0 0 0 0 0 0 0 0 0 0 0 0 0 0 0 0 0 0 0 0 0 0 0 0
0 0 0 0 0 0 0 0 0 0 0 0 0 0 0 0 0 0 0 0 0 0 0 0 0 0 0 0 0 -0 0 0 0 0 0 0 0 0
0 0 0 0 0 0 0 0 0 0 0 0 0 0 0 0 0 0 0 0 0 0 0 0 0 -0 0 0 0 0 0 0 0 0 0 0 0 0
0 0 0 0 0 0 0 0 0 0 0 0 0 0 0 0 0 0 0 0 0 0 0 0 0 0 0 0 0 0 -0 0 0 0 0 0 0 0
0 0 0 0 0 0 0 0 0 0 0 0 0 0 0 0 0 0 0 0 -0 0 0 0 0 0 0 -0 0 0 0 0 0 0 0 0 0 0
0 0 0 0 0 0 0 0 0 0 0 0 0 0 0 0 0 0 0 0 0 0 -0 0 0 0 -0 0 0 0 0 0 0 0 0 0 0 0
0 0 0 0 0 0 0 0 0 0 0 0 0 0 0 0 0 0 0 0 0 0 -0 0 0 0 0 0 0 0 0 0 0 0 0 0 0 0
0 0 0 0 0 0 0 0 0 0 0 0 0 0 0 0 0 0 0 0 0 0 -0 0 0 0 0 0 0 0 0 -0 0 0 0 0 -0 0
0 0 0 0 0 0 0 0 0 0 0 0 0 0 0 0 0 0 0 0 0 -0 -0 -0 0 0 0 0 -0 -0 -0 -0 0 0 0 0 0 0
0 0 0 0 0 0 0 0 0 0 0 0 0 0 0 0 0 -0 0 -0 -0 -0 0 0 0 0 0 0 0 -0 -0 0 0 0 0 0 0 0
0 0 0 0 0 0 0 0 0 0 0 0 0 0 0 -0 -0 0 -0 -0 0 0 0 0 0 0 0 0 0 0 -0 0 0 0 0 0 0 -0
0 0 0 0 0 0 0 0 0 0 0 0 0 0 -0 0 0 0 0 0 0 0 0 0 0 0 0 0 0 0 0 0 0 0 0 0 0 0
0 0 0 0 0 0 0 0 0 0 0 -0 0 0 0 0 0 0 0 0 0 0 0 0 0 0 0 0 0 0 0 0 0 0 0 0 0 0
0 0 0 0 0 0 0 0 0 -0 0 -0 0 0 0 0 0 0 0 0 0 0 0 0 0 0 0 0 0 0 0 0 0 0 0 0 0 0
0 0 0 0 0 0 0 -0 0 0 0 0 0 0 0 0 0 0 0 0 0 0 0 0 0 0 0 0 0 0 0 0 0 0 0 0 0 0
0 0 0 0 0 0 0 0 0 0 0 0 0 0 0 0 0 0 0 0 0 0 0 0 0 0 0 0 0 0 0 0 0 0 0 0 0 0
0 0 0 0 0 0 -0 0 0 0 0 0 0 0 0 0 0 0 0 0 0 0 0 0 0 0 0 0 0 0 0 0 0 0 0 0 0 0
0 0 0 -0 -0 0 0 0 0 0 0 0 0 0 0 0 0 0 0 0 0 0 0 0 0 0 0 0 0 0 0 -0 -0 0 0 -0 0 0
0 0 0 0 0 0 0 0 0 0 0 0 0 0 0 0 0 0 0 0 0 0 0 0 0 0 0 0 0 0 0 0 0 -0 -0 -0 0 0
0 0 0 0 0 0 0 0 0 0 0 0 0 0 0 0 0 0 0 0 0 0 0 0 0 0 0 0 0 0 0 0 -0 0 -0 -0 -0 -0
Wind_Speed_500mb
27 28 33 38 39 44 46 48 57 59 58 69 63 61 56 56 57 44 40 41 44 41 41 41 47 43 42 43 46 51 52 50 45 45 54 53 59 61
33 33 33 43 42 45 47 57 67 69 65 65 64 64 53 58 56 50 43 43 36 40 40 44 45 46 45 42 41 45 45 45 43 45 49 50 55 53
32 35 41 39 45 55 59 65 60 54 62 69 64 60 62 57 56 48 43 39 38 38 43 47 45 45 46 45 46 47 44 46 47 50 52 56 57 51
35 40 42 48 51 50 54 51 49 50 56 63 59 62 66 60 53 45 38 39 42 44 45 50 51 49 46 41 39 40 41 39 42 45 43 43 47 51
35 42 48 48 56 64 62 56 49 48 49 52 60 68 71 57 56 35 36 37 38 41 42 44 42 31 32 35 41 42 38 33 38 41 40 39 40 39
39 42 51 57 57 58 52 58 55 57 55 55 69 73 51 50 39 36 40 41 45 45 31 30 23 26 27 32 28 32 30 34 31 30 30 35 33 34
49 53 58 58 58 55 56 60 55 49 62 66 61 48 45 44 40 32 40 44 45 36 24 16 21 17 24 24 21 16 25 29 30 21 23 26 32 35
58 57 57 54 53 55 57 58 68 73 73 62 52 37 41 43 43 30 33 41 47 27 34 10 14 14 23 16 13 22 17 18 19 23 25 30 37 42
53 53 56 59 65 73 84 80 61 53 46 39 40 45 46 24 27 30 31 38 40 28 33 18 15 17 18 7 6 14 17 22 23 25 28 33 37 40
49 59 70 75 72 54 53 55 59 53 46 49 48 50 52 46 36 28 33 40 33 16 18 20 19 19 13 2 15 16 22 30 20 19 19 22 21 19
63 73 65 55 50 39 36 37 38 34 28 28 31 32 34 34 32 31 32 35 19 18 13 13 21 25 11 5 30 22 29 32 20 20 20 14 8 8
67 58 42 34 32 35 36 38 36 32 35 34 30 20 14 6 14 14 22 16 14 14 6 20 19 27 20 11 27 27 33 25 15 13 11 16 15 13
50 43 38 33 39 38 37 36 36 36 30 26 18 13 9 18 21 26 27 13 12 17 12 22 27 36 30 35 25 22 34 10 3 8 21 24 23 22
38 37 35 39 39 33 34 29 26 23 23 16 10 8 6 2 6 16 15 15 12 14 8 24 35 30 26 24 11 11 25 10 8 18 19 16 11 11
33 33 29 30 32 27 23 24 20 18 15 11 10 8 6 9 13 10 10 10 7 11 18 23 26 9 7 3 7 7 20 19 19 29 28 27 27 25
35 32 28 25 25 27 25 24 15 11 13 12 9 10 16 14 8 12 6 3 13 12 10 14 9 6 18 12 10 8 6 23 44 47 44 46 44 42
37 34 30 27 27 28 28 31 14 10 9 9 6 9 16 13 15 13 14 16 19 26 26 26 27 26 28 33 38 38 45 57 60 61 60 61 56 51
35 34 33 30 29 29 27 27 20 18 5 4 7 10 10 17 12 17 19 19 19 34 27 31 31 46 52 56 56 57 56 57 55 60 60 60 57 49
34 33 32 31 30 26 22 25 22 21 14 4 3 7 21 17 17 21 20 20 24 22 21 33 44 48 54 59 56 54 54 50 49 53 55 55 55 46
40 38 35 32 28 24 23 25 20 19 17 13 23 25 19 21 21 19 16 22 21 12 29 32 33 33 45 44 48 42 41 46 44 39 38 41 44 35
42 40 35 30 29 28 26 25 22 26 35 33 29 24 16 17 15 16 15 26 24 29 31 36 27 36 38 42 46 39 32 32 40 32 20 23 33 36
38 37 37 34 32 29 25 29 37 33 26 24 26 25 17 18 15 18 24 33 33 32 33 26 34 31 29 39 52 45 47 42 33 27 34 32 27 34
38 34 35 37 36 30 33 32 28 29 30 26 18 21 26 28 30 40 32 39 34 28 33 38 38 41 47 48 50 49 42 42 46 54 60 52 48 46
Wind_Direction_500mb
315 312 300 299 299 298 292 294 296 296 295 305 305 312 316 313 318 305 291 291 291 288 293 304 305 293 287 280 272 270 269 270 264 258 251 251 247 235
299 296 294 299 303 302 302 298 298 295 292 300 305 308 310 310 317 304 295 293 289 287 291 297 299 295 289 283 277 276 272 270 268 263 260 254 250 250
293 295 299 298 301 302 304 303 295 288 291 294 301 316 313 307 309 304 294 292 281 285 290 292 296 297 287 282 277 272 270 266 265 265 258 252 251 252
302 299 298 303 307 314 312 309 301 294 291 296 303 307 310 305 305 300 303 291 284 286 289 294 296 292 285 281 278 270 268 267 266 264 260 257 254 248
308 304 303 304 305 304 305 302 299 300 295 296 296 303 308 301 302 294 301 300 302 299 300 297 299 299 281 275 269 269 266 264 261 262 261 256 252 249
309 304 303 295 294 294 292 294 292 287 284 292 300 308 303 301 295 293 295 298 310 316 302 303 293 296 289 284 286 273 266 263 262 263 253 250 250 248
304 296 290 288 290 292 291 292 288 292 298 296 297 300 297 297 298 292 295 301 308 320 310 310 298 291 324 304 289 280 268 269 264 251 247 245 247 245
297 297 297 301 296 295 294 291 294 295 295 289 290 283 288 298 290 281 289 307 318 329 317 319 318 327 306 316 279 282 297 273 266 244 246 245 246 248
307 305 303 304 304 303 298 296 298 293 287 282 277 275 293 291 292 283 281 298 308 314 311 317 345 333 333 342 286 304 316 313 277 265 261 257 262 261
309 311 311 309 307 308 304 301 301 299 287 281 284 288 286 276 264 285 277 291 305 310 311 310 340 331 315 221 358 332 322 325 309 291 278 275 268 258
313 315 314 313 313 323 325 324 318 320 318 309 301 291 279 271 258 267 264 297 293 323 317 306 328 345 344 355 359 339 327 327 302 295 279 247 198 169
321 319 323 330 330 329 330 328 322 322 323 319 305 296 284 197 198 244 281 277 286 322 313 329 324 346 341 341 351 330 326 321 317 335 128 124 112 115
329 335 338 337 330 325 324 324 323 323 320 324 335 321 287 248 259 270 273 249 274 278 317 309 317 327 327 327 345 338 333 344 2 104 110 120 123 127
345 348 345 338 332 325 326 330 331 328 327 334 352 11 48 123 230 261 262 227 264 304 305 297 304 311 312 319 338 332 341 50 99 125 115 113 130 123
352 348 338 345 349 348 348 351 345 359 4 54 46 58 8 314 297 307 182 229 286 306 316 307 302 340 355 331 66 31 65 75 109 119 116 114 109 108
347 345 344 349 359 360 2 2 1 11 32 66 47 6 339 348 53 90 99 39 357 42 32 45 46 82 117 116 126 87 138 108 110 110 111 104 98 100
347 350 353 358 5 7 8 6 20 3 44 62 36 354 351 69 78 87 76 58 81 92 84 92 89 92 99 103 98 103 109 108 108 108 110 100 93 89
2 4 3 5 6 5 6 11 17 19 58 44 7 342 42 94 95 71 73 56 78 117 107 102 96 96 93 89 91 94 96 98 100 104 103 100 93 87
8 7 8 8 9 8 15 20 45 38 40 8 12 74 89 100 87 78 72 58 101 91 94 107 100 98 94 90 87 81 80 80 84 85 86 86 86 78
19 17 15 15 15 24 34 38 39 42 36 73 102 78 89 123 82 79 65 95 106 79 113 120 102 95 106 102 97 88 83 79 65 64 72 77 75 75
21 22 22 28 40 42 46 48 45 62 80 83 79 77 85 119 84 78 65 115 98 111 104 106 102 93 106 116 107 98 85 73 66 61 60 51 66 65
28 29 36 44 46 54 53 63 76 69 77 69 75 61 78 108 93 83 113 121 107 100 105 101 106 108 107 105 100 96 93 83 68 74 73 70 76 74
37 42 52 53 55 58 77 69 73 68 69 75 71 76 93 90 91 105 105 101 107 110 103 100 104 105 102 100 98 94 85 66 59 68 71 72 75 73
Wind_Speed_850mb
27 28 33 38 39 44 46 48 57 59 58 69 63 61 56 56 57 44 40 41 44 41 41 41 47 43 42 43 46 51 52 50 45 45 54 53 59 61
33 33 33 43 42 45 47 57 67 69 65 65 64 64 53 58 56 50 43 43 36 40 40 44 45 46 45 42 41 45 45 45 43 45 49 50 55 53
32 35 41 39 45 55 59 65 60 54 62 69 64 60 62 57 56 48 43 39 38 38 43 47 45 45 46 45 46 47 44 46 47 50 52 56 57 51
35 40 42 48 51 50 54 51 49 50 56 63 59 62 66 60 53 45 38 39 42 44 45 50 51 49 46 41 39 40 41 39 42 45 43 43 47 51
35 42 48 48 56 64 62 56 49 48 49 52 60 68 71 57 56 35 36 37 38 41 42 44 42 31 32 35 41 42 38 33 38 41 40 39 40 39
39 42 51 57 57 58 52 58 55 57 55 55 69 73 51 50 39 36 40 41 45 45 31 30 23 26 27 32 28 32 30 34 31 30 30 35 33 34
49 53 58 58 58 55 56 60 55 49 62 66 61 48 45 44 40 32 40 44 45 36 24 16 21 17 24 24 21 16 25 29 30 21 23 26 32 35
58 57 57 54 53 55 57 58 68 73 73 62 52 37 41 43 43 30 33 41 47 27 34 10 14 14 23 16 13 22 17 18 19 23 25 30 37 42
53 53 56 59 65 73 84 80 61 53 46 39 40 45 46 24 27 30 31 38 40 28 33 18 15 17 18 7 6 14 17 22 23 25 28 33 37 40
49 59 70 75 72 54 53 55 59 53 46 49 48 50 52 46 36 28 33 40 33 16 18 20 19 19 13 2 15 16 22 30 20 19 19 22 21 19
63 73 65 55 50 39 36 37 38 34 28 28 31 32 34 34 32 31 32 35 19 18 13 13 21 25 11 5 30 22 29 32 20 20 20 14 8 8
67 58 42 34 32 35 36 38 36 32 35 34 30 20 14 6 14 14 22 16 14 14 6 20 19 27 20 11 27 27 33 25 15 13 11 16 15 13
50 43 38 33 39 38 37 36 36 36 30 26 18 13 9 18 21 26 27 13 12 17 12 22 27 36 30 35 25 22 34 10 3 8 21 24 23 22
38 37 35 39 39 33 34 29 26 23 23 16 10 8 6 2 6 16 15 15 12 14 8 24 35 30 26 24 11 11 25 10 8 18 19 16 11 11
33 33 29 30 32 27 23 24 20 18 15 11 10 8 6 9 13 10 10 10 7 11 18 23 26 9 7 3 7 7 20 19 19 29 28 27 27 25
35 32 28 25 25 27 25 24 15 11 13 12 9 10 16 14 8 12 6 3 13 12 10 14 9 6 18 12 10 8 6 23 44 47 44 46 44 42
37 34 30 27 27 28 28 31 14 10 9 9 6 9 16 13 15 13 14 16 19 26 26 26 27 26 28 33 38 38 45 57 60 61 60 61 56 51
35 34 33 30 29 29 27 27 20 18 5 4 7 10 10 17 12 17 19 19 19 34 27 31 31 46 52 56 56 57 56 57 55 60 60 60 57 49
34 33 32 31 30 26 22 25 22 21 14 4 3 7 21 17 17 21 20 20 24 22 21 33 44 48 54 59 56 54 54 50 49 53 55 55 55 46
40 38 35 32 28 24 23 25 20 19 17 13 23 25 19 21 21 19 16 22 21 12 29 32 33 33 45 44 48 42 41 46 44 39 38 41 44 35
42 40 35 30 29 28 26 25 22 26 35 33 29 24 16 17 15 16 15 26 24 29 31 36 27 36 38 42 46 39 32 32 40 32 20 23 33 36
38 37 37 34 32 29 25 29 37 33 26 24 26 25 17 18 15 18 24 33 33 32 33 26 34 31 29 39 52 45 47 42 33 27 34 32 27 34
38 34 35 37 36 30 33 32 28 29 30 26 18 21 26 28 30 40 32 39 34 28 33 38 38 41 47 48 50 49 42 42 46 54 60 52 48 46
Wind_Direction_850mb
315 312 300 299 299 298 292 294 296 296 295 305 305 312 316 313 318 305 291 291 291 288 293 304 305 293 287 280 272 270 269 270 264 258 251 251 247 235
299 296 294 299 303 302 302 298 298 295 292 300 305 308 310 310 317 304 295 293 289 287 291 297 299 295 289 283 277 276 272 270 268 263 260 254 250 250
293 295 299 298 301 302 304 303 295 288 291 294 301 316 313 307 309 304 294 292 281 285 290 292 296 297 287 282 277 272 270 266 265 265 258 252 251 252
302 299 298 303 307 314 312 309 301 294 291 296 303 307 310 305 305 300 303 291 284 286 289 294 296 292 285 281 278 270 268 267 266 264 260 257 254 248
308 304 303 304 305 304 305 302 299 300 295 296 296 303 308 301 302 294 301 300 302 299 300 297 299 299 281 275 269 269 266 264 261 262 261 256 252 249
309 304 303 295 294 294 292 294 292 287 284 292 300 308 303 301 295 293 295 298 310 316 302 303 293 296 289 284 286 273 266 263 262 263 253 250 250 248
304 296 290 288 290 292 291 292 288 292 298 296 297 300 297 297 298 292 295 301 308 320 310 310 298 291 324 304 289 280 268 269 264 251 247 245 247 245
297 297 297 301 296 295 294 291 294 295 295 289 290 283 288 298 290 281 289 307 318 329 317 319 318 327 306 316 279 282 297 273 266 244 246 245 246 248
307 305 303 304 304 303 298 296 298 293 287 282 277 275 293 291 292 283 281 298 308 314 311 317 345 333 333 342 286 304 316 313 277 265 261 257 262 261
309 311 311 309 307 308 304 301 301 299 287 281 284 288 286 276 264 285 277 291 305 310 311 310 340 331 315 221 358 332 322 325 309 291 278 275 268 258
313 315 314 313 313 323 325 324 318 320 318 309 301 291 279 271 258 267 264 297 293 323 317 306 328 345 344 355 359 339 327 327 302 295 279 247 198 169
321 319 323 330 330 329 330 328 322 322 323 319 305 296 284 197 198 244 281 277 286 322 313 329 324 346 341 341 351 330 326 321 317 335 128 124 112 115
329 335 338 337 330 325 324 324 323 323 320 324 335 321 287 248 259 270 273 249 274 278 317 309 317 327 327 327 345 338 333 344 2 104 110 120 123 127
345 348 345 338 332 325 326 330 331 328 327 334 352 11 48 123 230 261 262 227 264 304 305 297 304 311 312 319 338 332 341 50 99 125 115 113 130 123
352 348 338 345 349 348 348 351 345 359 4 54 46 58 8 314 297 307 182 229 286 306 316 307 302 340 355 331 66 31 65 75 109 119 116 114 109 108
347 345 344 349 359 360 2 2 1 11 32 66 47 6 339 348 53 90 99 39 357 42 32 45 46 82 117 116 126 87 138 108 110 110 111 104 98 100
347 350 353 358 5 7 8 6 20 3 44 62 36 354 351 69 78 87 76 58 81 92 84 92 89 92 99 103 98 103 109 108 108 108 110 100 93 89
2 4 3 5 6 5 6 11 17 19 58 44 7 342 42 94 95 71 73 56 78 117 107 102 96 96 93 89 91 94 96 98 100 104 103 100 93 87
8 7 8 8 9 8 15 20 45 38 40 8 12 74 89 100 87 78 72 58 101 91 94 107 100 98 94 90 87 81 80 80 84 85 86 86 86 78
19 17 15 15 15 24 34 38 39 42 36 73 102 78 89 123 82 79 65 95 106 79 113 120 102 95 106 102 97 88 83 79 65 64 72 77 75 75
21 22 22 28 40 42 46 48 45 62 80 83 79 77 85 119 84 78 65 115 98 111 104 106 102 93 106 116 107 98 85 73 66 61 60 51 66 65
28 29 36 44 46 54 53 63 76 69 77 69 75 61 78 108 93 83 113 121 107 100 105 101 106 108 107 105 100 96 93 83 68 74 73 70 76 74
37 42 52 53 55 58 77 69 73 68 69 75 71 76 93 90 91 105 105 101 107 110 103 100 104 105 102 100 98 94 85 66 59 68 71 72 75 73